UAL401 CYVR-CYYC

Flight info

Callsign UAL401
Flight time N/A
Altitude 31000
Route YVR4/26L DAPED DCT PETLI DCT MENBO Q983 NORET IGVEP7
Aircraft B772/H-SDE2E3FGHIJ5LORVWXY/LB1D1

Departure

Time 2026-05-03 21:40
Airport Vancouver International Airport (CYVR)

Arrival

Time N/A
Airport Calgary International Airport (CYYC)
Time Latitude Longitude Altitude Speed Heading
2026-05-03 20:56 49.19547 -123.18137 25 ft 0 kts 177°
2026-05-03 21:22 49.19560 -123.18138 25 ft 3 kts 177°
2026-05-03 21:22 49.19583 -123.18136 25 ft 2 kts 201°
2026-05-03 21:22 49.19590 -123.18132 25 ft 0 kts 207°
2026-05-03 21:29 49.19578 -123.18156 25 ft 5 kts 258°
2026-05-03 21:29 49.19607 -123.18231 25 ft 10 kts 307°
2026-05-03 21:29 49.19654 -123.18333 25 ft 13 kts 303°
2026-05-03 21:29 49.19699 -123.18467 22 ft 16 kts 286°
2026-05-03 21:30 49.19706 -123.18507 22 ft 8 kts 283°
2026-05-03 21:30 49.19716 -123.18613 22 ft 11 kts 265°
2026-05-03 21:30 49.19684 -123.18674 22 ft 6 kts 209°
2026-05-03 21:30 49.19621 -123.18695 22 ft 12 kts 188°
2026-05-03 21:31 49.19523 -123.18718 22 ft 16 kts 189°
2026-05-03 21:31 49.19406 -123.18707 22 ft 18 kts 165°
2026-05-03 21:31 49.19278 -123.18717 23 ft 15 kts 191°
2026-05-03 21:31 49.19200 -123.18721 24 ft 11 kts 165°
2026-05-03 21:32 49.19119 -123.18642 25 ft 15 kts 142°
2026-05-03 21:32 49.19020 -123.18524 25 ft 20 kts 142°
2026-05-03 21:32 49.18948 -123.18353 25 ft 17 kts 104°
2026-05-03 21:32 49.18923 -123.18148 25 ft 21 kts 100°
2026-05-03 21:33 49.18895 -123.17905 23 ft 20 kts 100°
2026-05-03 21:33 49.18871 -123.17703 22 ft 19 kts 100°
2026-05-03 21:33 49.18847 -123.17491 22 ft 21 kts 101°
2026-05-03 21:33 49.18820 -123.17261 22 ft 22 kts 99°
2026-05-03 21:34 49.18803 -123.17113 22 ft 24 kts 100°
2026-05-03 21:34 49.18787 -123.16962 22 ft 11 kts 99°
2026-05-03 21:34 49.18771 -123.16820 22 ft 16 kts 100°
2026-05-03 21:35 49.18747 -123.16619 22 ft 20 kts 99°
2026-05-03 21:35 49.18739 -123.16552 22 ft 17 kts 100°
2026-05-03 21:35 49.18709 -123.16333 22 ft 20 kts 114°
2026-05-03 21:35 49.18644 -123.16181 22 ft 16 kts 114°
2026-05-03 21:36 49.18616 -123.16074 21 ft 0 kts 126°
2026-05-03 21:37 49.18603 -123.16056 21 ft 6 kts 149°
2026-05-03 21:38 49.18540 -123.16043 22 ft 11 kts 183°
2026-05-03 21:38 49.18479 -123.16102 22 ft 7 kts 266°
2026-05-03 21:38 49.18480 -123.16123 22 ft 0 kts 277°
2026-05-03 21:39 49.18480 -123.16124 22 ft 0 kts 277°
2026-05-03 21:39 49.18489 -123.16224 22 ft 27 kts 279°
2026-05-03 21:40 49.18585 -123.17030 22 ft 124 kts 280°
2026-05-03 21:40 49.18751 -123.18643 428 ft 171 kts 279°
2026-05-03 21:40 49.18920 -123.20501 1237 ft 190 kts 280°
2026-05-03 21:40 49.19139 -123.22592 2204 ft 215 kts 281°
2026-05-03 21:41 49.19393 -123.24858 3447 ft 225 kts 281°
2026-05-03 21:41 49.19649 -123.27136 4425 ft 223 kts 281°
2026-05-03 21:41 49.19921 -123.29550 4995 ft 240 kts 281°
2026-05-03 21:41 49.20213 -123.32139 5583 ft 257 kts 281°
2026-05-03 21:42 49.20525 -123.34903 6145 ft 274 kts 281°
2026-05-03 21:42 49.20650 -123.37826 6881 ft 283 kts 263°
2026-05-03 21:42 49.19956 -123.40619 7709 ft 289 kts 236°
2026-05-03 21:42 49.18507 -123.42715 8526 ft 293 kts 210°
2026-05-03 21:43 49.16593 -123.43694 9344 ft 295 kts 188°
2026-05-03 21:43 49.14551 -123.44090 10135 ft 300 kts 183°
2026-05-03 21:43 49.12503 -123.43716 10890 ft 301 kts 159°
2026-05-03 21:43 49.10741 -123.42071 11662 ft 301 kts 134°
2026-05-03 21:44 49.09591 -123.39453 12419 ft 301 kts 108°
2026-05-03 21:44 49.09129 -123.36342 13030 ft 308 kts 97°
2026-05-03 21:44 49.08836 -123.33017 13472 ft 324 kts 95°
2026-05-03 21:44 49.08550 -123.29592 14189 ft 330 kts 96°
2026-05-03 21:45 49.08261 -123.26145 15002 ft 331 kts 95°
2026-05-03 21:45 49.07966 -123.22659 15679 ft 337 kts 95°
2026-05-03 21:45 49.07662 -123.19094 15905 ft 341 kts 95°
2026-05-03 21:45 49.07349 -123.15528 15961 ft 340 kts 95°
2026-05-03 21:46 49.07036 -123.11961 15947 ft 340 kts 96°
2026-05-03 21:46 49.06729 -123.08398 15937 ft 340 kts 95°
2026-05-03 21:46 49.06423 -123.04832 15969 ft 340 kts 95°
2026-05-03 21:46 49.06121 -123.01262 15921 ft 340 kts 95°
2026-05-03 21:47 49.05813 -122.97684 15954 ft 340 kts 95°
2026-05-03 21:47 49.05511 -122.94112 15928 ft 340 kts 95°
2026-05-03 21:47 49.05207 -122.90546 15933 ft 341 kts 95°
2026-05-03 21:47 49.04908 -122.86974 15905 ft 339 kts 95°
2026-05-03 21:48 49.04605 -122.83407 15905 ft 340 kts 95°
2026-05-03 21:48 49.04300 -122.79842 15973 ft 341 kts 95°
2026-05-03 21:48 49.03996 -122.76273 15843 ft 339 kts 95°
2026-05-03 21:48 49.03688 -122.72720 15914 ft 341 kts 95°
2026-05-03 21:49 49.03385 -122.69156 15891 ft 339 kts 95°
2026-05-03 21:49 49.03079 -122.65568 16068 ft 350 kts 95°
2026-05-03 21:49 49.02771 -122.61916 16957 ft 349 kts 95°
2026-05-03 21:49 49.02456 -122.58300 17899 ft 347 kts 95°
2026-05-03 21:50 49.02143 -122.54667 18635 ft 351 kts 95°
2026-05-03 21:50 49.01817 -122.50982 19330 ft 355 kts 95°
2026-05-03 21:50 49.01486 -122.47238 20059 ft 359 kts 95°
2026-05-03 21:50 49.01147 -122.43469 20792 ft 362 kts 95°
2026-05-03 21:51 49.00808 -122.39669 21478 ft 366 kts 95°
2026-05-03 21:51 49.00453 -122.35820 22132 ft 370 kts 95°
2026-05-03 21:51 49.00094 -122.31914 22798 ft 374 kts 95°
2026-05-03 21:51 48.99735 -122.28009 23488 ft 376 kts 95°
2026-05-03 21:52 48.99371 -122.24061 24105 ft 380 kts 95°
2026-05-03 21:52 48.99005 -122.20070 24712 ft 384 kts 95°
2026-05-03 21:52 48.98631 -122.16053 25316 ft 387 kts 95°
2026-05-03 21:52 48.98248 -122.12002 25923 ft 389 kts 95°
2026-05-03 21:53 48.97867 -122.07929 26500 ft 392 kts 95°
2026-05-03 21:53 48.97470 -122.03826 27104 ft 394 kts 95°
2026-05-03 21:53 48.97066 -121.99704 27669 ft 395 kts 95°
2026-05-03 21:53 48.96655 -121.95566 28167 ft 398 kts 95°
2026-05-03 21:54 48.96234 -121.91397 28628 ft 401 kts 95°
2026-05-03 21:54 48.95811 -121.87196 29049 ft 405 kts 95°
2026-05-03 21:54 48.95385 -121.82947 29456 ft 408 kts 95°
2026-05-03 21:54 48.95003 -121.78695 29867 ft 408 kts 90°
2026-05-03 21:55 48.95025 -121.74403 30168 ft 408 kts 80°
2026-05-03 21:55 48.95522 -121.70185 30497 ft 407 kts 72°
2026-05-03 21:55 48.96265 -121.66051 30942 ft 407 kts 71°
2026-05-03 21:55 48.97025 -121.61896 31056 ft 408 kts 70°
2026-05-03 21:56 48.98532 -121.53636 31087 ft 404 kts 70°
2026-05-03 21:56 49.00027 -121.45405 31104 ft 403 kts 70°
2026-05-03 21:57 49.01532 -121.37093 31111 ft 417 kts 70°
2026-05-03 21:57 49.03081 -121.28500 31117 ft 421 kts 71°
2026-05-03 21:58 49.04619 -121.19913 31120 ft 421 kts 71°
2026-05-03 21:58 49.06147 -121.11341 31125 ft 421 kts 71°
2026-05-03 21:59 49.07674 -121.02735 31105 ft 422 kts 71°
2026-05-03 21:59 49.09201 -120.94090 31115 ft 423 kts 71°
2026-05-03 22:00 49.10716 -120.85469 31115 ft 424 kts 71°
2026-05-03 22:00 49.12285 -120.76838 31124 ft 420 kts 67°
2026-05-03 22:01 49.14633 -120.68676 31115 ft 421 kts 62°
2026-05-03 22:01 49.17051 -120.60614 31118 ft 419 kts 62°
2026-05-03 22:02 49.19476 -120.52501 31102 ft 421 kts 62°
2026-05-03 22:02 49.21893 -120.44391 31117 ft 421 kts 62°
2026-05-03 22:03 49.24309 -120.36254 31123 ft 420 kts 62°
2026-05-03 22:03 49.26726 -120.28089 31134 ft 423 kts 62°
2026-05-03 22:04 49.29143 -120.19895 31125 ft 421 kts 62°
2026-05-03 22:04 49.31546 -120.11720 31108 ft 424 kts 62°
2026-05-03 22:05 49.33948 -120.03520 31097 ft 422 kts 62°
2026-05-03 22:05 49.36352 -119.95289 31078 ft 424 kts 62°
2026-05-03 22:06 49.38747 -119.87058 31064 ft 423 kts 62°
2026-05-03 22:06 49.41138 -119.78814 31032 ft 423 kts 62°
2026-05-03 22:07 49.43533 -119.70528 31012 ft 426 kts 62°
2026-05-03 22:07 49.45920 -119.62238 30981 ft 426 kts 62°
2026-05-03 22:08 49.48307 -119.53921 30990 ft 426 kts 62°
2026-05-03 22:08 49.50590 -119.45940 31008 ft 428 kts 62°
2026-05-03 22:09 49.52815 -119.38138 31030 ft 428 kts 62°
2026-05-03 22:10 49.56379 -119.25581 31060 ft 426 kts 63°
2026-05-03 22:10 49.58746 -119.17208 31055 ft 430 kts 63°
2026-05-03 22:11 49.61115 -119.08796 31055 ft 429 kts 63°
2026-05-03 22:11 49.63474 -119.00389 31074 ft 429 kts 63°
2026-05-03 22:12 49.65839 -118.91933 31069 ft 431 kts 63°
2026-05-03 22:12 49.68197 -118.83471 31059 ft 431 kts 63°